HUANJING 1B (HJ-1B)

Last updated on Sat Dec 13 2025 00:02:30 GMT+0000 (Coordinated Universal Time)

1 33321U 08041B 25346.24984567 .00002737 00000+0 34030-3 0 9991 2 33321 97.6403 338.2670 0038191 77.1817 283.3660 14.82820323930705
UTC large
Height (km)
Speed (km/s)
/
Latitude / Longitude
Inclination (degrees)
Orbital Period (minutes)
Azimuth
Elevation
Range (km)
Doppler Factor

Next 0 passes for location: London (51.5072 / 0.1276)

Sorry there are no passes over London.